EHI
0 0 0 0 0 0 0 0 0 0 0 0 0 0 0 0 0 0 0 1 1 1 1 2 7 7 3 0 0 0 0 0 0 0 0 0 0 0 0 0 0 0 0 1 0 0 0 0 0
0 0 0 0 0 0 0 0 0 0 0 0 0 0 0 0 0 0 0 1 1 0 0 3 7 7 3 1 0 0 0 0 0 0 0 0 0 0 0 0 0 0 0 1 0 0 0 0 0
0 0 0 0 0 0 0 0 0 0 0 0 0 0 0 0 0 0 0 0 0 0 1 3 6 6 4 1 0 0 0 0 0 0 0 0 0 0 0 0 0 0 0 0 0 0 0 0 0
0 0 0 0 0 0 0 0 0 0 0 0 0 0 0 0 0 0 0 0 0 1 2 3 4 5 4 2 1 0 0 0 0 0 0 0 0 0 0 0 0 0 0 0 0 0 0 0 0
0 0 0 0 0 0 0 0 0 0 0 0 0 0 0 0 0 0 0 0 0 1 1 2 2 3 3 3 2 1 0 0 0 0 0 0 0 0 0 0 0 0 0 0 1 0 0 0 0
0 0 0 0 0 0 0 0 0 0 0 0 0 0 0 0 0 0 0 0 0 0 1 1 1 1 1 2 2 1 0 0 0 0 0 0 0 0 0 0 0 0 0 0 0 0 0 0 0
0 0 0 0 0 0 0 0 0 0 0 0 0 0 0 0 0 0 0 0 0 0 1 0 0 0 0 1 1 0 0 0 0 0 0 0 0 0 0 0 0 0 0 0 0 0 0 0 0
0 0 0 0 0 0 0 0 0 0 0 0 0 0 0 0 0 1 0 0 0 0 0 0 0 0 0 0 0 0 0 0 0 0 0 0 0 0 0 0 0 0 0 0 0 0 0 0 0
0 0 0 0 0 0 0 0 0 0 0 0 0 0 0 0 0 0 0 0 0 0 0 0 0 0 0 0 0 0 0 0 0 0 0 0 0 0 0 0 0 0 0 0 0 0 0 0 0
0 0 0 0 0 0 0 0 0 0 0 0 0 0 0 0 0 0 0 0 0 0 0 0 0 0 0 0 0 0 0 0 0 0 0 0 0 0 0 0 0 0 0 0 0 0 0 0 0
0 0 0 0 0 0 0 0 0 0 0 0 0 0 0 0 0 0 0 0 0 0 0 0 0 0 0 0 0 0 0 0 0 0 0 0 0 0 0 0 0 0 0 0 0 0 0 0 0
0 0 0 0 0 0 0 0 0 0 0 0 0 0 0 0 0 0 0 0 0 0 0 0 0 0 0 0 0 0 0 0 0 0 0 0 0 0 0 0 0 0 0 0 0 0 0 0 0
0 0 0 0 0 0 0 0 0 0 0 0 0 0 0 0 0 0 0 0 0 0 0 0 0 0 0 0 0 0 0 0 0 0 0 0 0 0 0 0 0 0 0 0 0 0 0 0 0
0 0 0 0 0 0 0 0 0 0 0 0 0 0 0 0 0 0 0 0 0 0 0 0 0 0 0 0 0 0 0 0 0 0 0 0 0 0 0 0 0 0 0 0 0 0 0 0 0
0 0 0 0 0 0 0 0 0 0 0 0 0 0 0 0 0 0 0 0 0 0 0 0 0 0 0 0 0 0 0 0 0 0 0 0 0 0 0 0 0 0 0 0 0 0 0 0 0
0 0 0 0 0 0 0 0 0 0 0 0 0 0 0 0 0 0 0 0 0 0 0 0 0 0 0 0 0 0 0 0 0 0 0 0 0 0 0 0 0 0 0 0 0 0 0 0 0
0 0 0 0 0 0 0 0 0 0 0 0 0 0 0 0 0 0 0 0 0 0 0 0 0 0 0 0 0 0 0 0 0 0 0 0 0 0 0 0 0 0 0 0 0 0 0 0 0
0 0 0 0 0 0 0 0 0 0 0 0 0 0 0 0 0 0 0 0 0 0 0 0 0 0 0 0 0 0 0 0 0 0 0 0 0 0 0 0 0 0 0 0 0 0 0 0 0
0 0 0 0 0 0 0 0 0 0 0 0 0 0 0 0 0 0 0 0 0 0 0 0 0 0 0 0 0 0 0 0 0 0 0 0 0 0 0 0 0 0 0 0 0 0 0 0 0
0 0 0 0 0 0 0 0 0 0 0 0 0 0 0 0 0 0 0 0 0 0 0 0 0 0 0 0 0 0 0 0 0 0 0 0 0 0 0 0 0 0 0 0 0 0 0 0 0
0 0 0 0 0 0 0 0 0 0 0 0 0 0 0 0 0 0 0 0 0 0 0 0 0 0 0 0 0 0 0 0 0 0 0 0 0 0 0 0 0 0 0 0 0 0 0 0 0
0 0 0 0 0 0 0 0 0 0 0 0 0 0 0 0 0 0 0 0 0 0 0 0 0 0 0 0 0 0 0 0 0 0 0 0 0 0 0 0 0 0 0 0 0 0 0 0 0
0 0 0 0 0 0 0 0 0 0 0 0 0 0 0 0 0 0 0 0 0 0 0 0 0 0 0 0 0 0 0 0 0 0 0 0 0 0 0 0 0 0 0 0 0 0 0 0 0
0 0 0 0 0 0 0 0 0 0 0 0 0 0 0 0 0 0 0 0 0 0 0 0 0 0 0 0 0 0 0 0 0 0 0 0 0 0 0 0 0 0 0 0 0 0 0 0 0
0 0 0 0 0 0 0 0 0 0 0 0 0 0 0 0 0 0 0 0 0 0 0 0 0 0 0 0 0 0 0 0 0 0 0 0 0 0 0 0 0 0 0 0 0 0 0 0 0
0 0 0 0 0 0 0 0 0 0 0 0 0 0 0 0 0 0 0 0 0 0 0 0 0 0 0 0 0 0 0 0 0 0 0 0 0 0 0 0 0 0 0 0 0 0 0 0 0
0 0 0 0 0 0 0 0 0 0 0 0 0 0 0 0 0 0 0 0 0 0 0 0 0 0 0 0 0 0 0 0 0 0 0 0 0 0 0 0 0 0 0 0 0 0 0 0 0
0 0 0 0 0 0 0 0 0 0 0 0 0 0 0 0 0 0 0 0 0 0 0 0 0 0 0 0 0 0 0 0 0 0 0 0 0 0 0 0 0 0 0 0 0 0 0 0 0
0 0 0 0 0 0 0 0 0 0 0 0 0 0 0 0 0 0 0 0 0 0 0 0 0 0 0 0 0 0 0 0 0 0 0 0 0 0 0 0 0 0 0 0 0 0 0 0 0
0 0 0 0 0 0 0 0 0 0 0 0 0 0 0 0 0 0 0 0 0 0 0 0 0 0 0 0 0 0 0 0 0 0 0 0 0 0 0 0 0 0 0 0 0 0 0 0 0
Wind_Speed
10 9 6 3 4 5 7 5 4 1 1 4 4 4 4 5 5 5 3 4 6 9 10 8 8 9 10 9 9 9 9 9 9 8 8 8 8 9 10 9 9 10 10 11 11 11 11 11 11
9 6 3 3 5 5 5 4 3 1 4 3 2 2 2 4 6 5 4 3 5 8 9 8 8 8 9 9 9 9 9 9 8 8 8 8 8 9 9 9 10 10 11 11 11 11 10 10 10
10 6 3 3 5 6 3 2 2 3 4 2 1 2 3 4 5 4 3 3 5 6 7 8 8 7 8 8 9 8 8 9 8 8 8 8 8 9 9 10 10 10 10 10 10 10 10 9 9
4 4 4 5 8 7 4 1 2 1 2 1 0 2 4 5 4 4 3 3 5 6 7 8 8 8 8 8 8 8 8 9 8 8 8 8 8 9 9 9 10 10 10 9 10 9 9 9 8
4 4 6 7 9 7 3 1 1 1 1 1 1 1 4 4 6 5 3 4 5 5 6 8 8 8 7 8 8 8 8 8 8 8 8 8 9 9 9 9 9 9 9 9 9 8 8 8 7
4 4 5 7 8 7 3 0 1 2 1 1 0 1 4 4 5 4 4 3 4 5 5 7 7 7 7 7 7 7 7 7 7 7 8 9 9 8 9 9 9 8 8 8 8 7 7 7 7
4 4 7 8 7 5 1 1 1 1 1 2 2 0 4 4 4 3 3 3 4 5 5 4 4 5 6 6 6 6 6 7 7 7 7 7 8 8 8 8 8 8 8 7 7 6 6 6 6
4 4 7 7 7 4 1 1 2 3 2 3 3 1 2 3 3 3 4 4 4 5 4 3 3 3 4 4 5 6 6 6 7 7 7 7 8 8 7 7 7 7 7 7 6 6 6 5 4
3 4 6 6 5 2 2 1 1 2 1 1 2 2 4 5 4 3 3 3 3 3 3 2 2 2 2 4 5 6 6 6 7 6 7 7 5 5 5 7 7 7 6 6 6 5 5 4 3
3 5 6 4 4 3 3 2 1 0 1 1 1 2 3 4 3 3 2 2 2 1 1 2 2 1 2 3 4 3 3 4 3 3 4 3 3 3 5 7 6 6 6 5 5 4 3 2 1
4 5 5 5 5 4 4 4 3 3 3 2 1 1 2 2 2 2 1 1 1 0 1 1 1 1 2 2 2 2 2 2 3 3 3 3 3 3 3 3 3 4 4 3 3 2 1 1 1
4 5 5 4 4 4 4 3 3 3 3 4 3 2 1 1 1 1 1 1 1 1 1 1 1 1 1 2 2 2 2 2 2 3 3 2 2 3 3 2 3 2 2 2 1 1 1 1 1
6 5 4 3 1 2 3 4 4 5 3 2 1 1 1 0 0 1 1 1 1 1 1 1 1 1 1 1 1 2 2 2 3 3 3 3 2 3 3 2 2 2 2 2 1 1 1 1 1
3 4 6 5 3 3 3 5 4 5 2 1 0 0 0 1 1 1 1 1 0 0 0 1 0 1 1 2 1 2 2 2 3 3 3 3 2 2 3 3 2 2 2 1 1 1 1 1 1
4 5 7 6 5 3 1 5 6 5 2 2 1 1 1 0 0 1 1 1 0 0 0 1 1 1 1 2 2 2 2 2 2 2 3 3 2 2 2 3 2 2 2 2 1 1 1 1 1
4 5 5 3 4 3 2 6 2 1 1 2 2 1 0 0 1 2 2 1 1 0 0 1 1 1 1 1 1 1 2 2 2 2 2 2 2 2 2 2 2 2 2 1 1 1 1 1 0
4 5 6 2 3 2 4 6 3 2 2 3 3 2 0 0 2 2 2 2 2 1 0 1 1 0 1 2 2 2 2 2 2 2 2 2 2 2 2 2 2 2 2 1 1 1 1 1 0
3 5 5 4 1 1 5 7 6 4 3 4 3 2 1 1 1 2 2 2 2 1 1 1 1 1 1 1 2 2 2 2 2 2 2 2 2 2 2 2 2 2 2 1 1 1 1 1 1
6 7 8 6 3 3 6 8 8 5 4 4 3 3 2 1 2 3 2 2 2 2 2 2 2 2 1 1 1 1 1 1 1 2 2 2 2 2 2 2 2 2 2 2 2 2 2 1 1
7 8 7 5 1 3 6 9 9 6 6 5 4 2 2 2 3 3 3 3 2 2 2 2 2 1 1 1 1 1 1 1 1 2 2 2 2 2 2 2 2 2 2 1 1 1 1 1 1
8 7 7 5 5 4 5 7 7 5 4 3 2 2 3 3 3 3 3 3 3 3 2 2 2 1 1 1 1 2 2 1 1 1 1 2 2 2 2 2 2 1 2 2 2 2 2 1 1
7 4 5 4 3 3 2 5 5 4 4 3 2 2 3 3 3 3 3 3 3 2 2 2 2 2 1 1 1 2 2 1 1 1 1 2 2 1 1 1 1 1 1 1 1 2 1 2 1
3 3 4 4 4 5 4 5 6 3 4 4 4 3 3 3 3 3 3 2 2 2 2 2 2 2 2 2 2 1 1 1 1 1 2 2 1 1 1 1 1 1 1 1 1 1 1 1 1
2 2 3 3 2 5 6 6 6 2 4 4 4 4 3 3 3 3 3 3 3 3 3 3 2 3 2 2 1 1 1 1 1 2 1 1 1 1 1 1 0 0 1 1 1 2 2 1 1
2 2 1 2 3 7 3 5 6 1 2 3 5 5 4 4 3 3 3 3 3 3 3 3 3 3 2 2 1 1 0 0 1 1 1 1 1 0 0 1 1 1 1 1 1 1 2 2 2
5 4 3 3 4 3 2 6 4 2 2 2 3 5 5 4 3 3 3 3 3 3 3 3 3 3 3 2 1 1 0 0 0 0 0 1 1 1 1 1 1 1 1 1 1 1 1 1 2
4 5 2 1 2 4 6 4 2 2 2 2 3 4 4 4 4 3 3 3 2 2 2 3 2 2 2 2 2 1 1 1 1 0 0 0 0 0 1 1 1 1 1 1 1 1 1 1 2
3 2 1 3 4 6 6 6 5 5 4 4 3 3 3 3 4 3 2 2 2 2 2 3 3 2 2 2 2 2 1 1 1 1 0 1 0 0 0 1 1 1 1 1 1 1 1 1 1
4 3 4 4 4 4 5 4 1 4 5 5 4 3 3 3 3 2 2 2 2 2 2 2 2 3 3 3 2 2 1 1 1 1 0 0 0 0 0 1 1 1 1 1 1 1 1 2 1
4 5 6 4 5 5 5 6 2 3 2 4 3 3 3 3 3 2 2 2 2 2 2 2 2 2 3 3 3 2 2 1 1 1 1 0 0 0 0 0 0 0 0 1 1 1 1 2 2
Wind_Direction
293 271 258 253 239 230 238 231 237 255 53 41 24 352 12 19 25 83 101 62 95 119 130 141 140 142 142 141 139 137 136 134 130 125 120 116 113 111 107 104 101 96 95 92 88 86 83 81 79
289 281 260 239 245 240 240 225 214 89 74 63 35 338 16 61 65 90 85 77 103 121 133 140 138 141 143 143 143 141 141 140 136 130 122 117 116 114 108 105 104 99 95 92 88 86 84 80 79
274 257 250 238 244 253 260 62 70 76 86 82 21 19 17 41 62 68 68 96 104 117 123 123 130 134 139 143 144 143 143 142 139 134 127 121 118 114 110 106 103 100 96 93 89 87 84 81 78
265 231 233 241 249 255 269 13 62 93 109 127 125 82 80 45 32 60 73 90 104 110 115 122 125 125 131 137 142 141 143 143 142 137 132 126 122 115 110 108 103 101 98 95 92 89 86 84 79
238 242 233 237 245 257 263 25 0 255 190 137 156 114 91 64 67 75 72 80 96 109 115 127 129 127 128 131 139 141 139 141 143 142 138 131 125 119 114 109 105 102 101 98 95 93 90 87 81
246 241 238 238 240 241 223 182 243 241 227 50 352 206 97 82 70 65 66 69 86 96 106 128 133 133 131 133 133 135 139 140 141 141 138 132 127 123 120 115 113 109 105 100 97 95 94 92 82
263 259 253 253 253 250 220 89 274 278 341 1 346 72 117 88 63 63 74 70 73 82 90 101 127 139 136 135 132 135 138 140 138 136 130 123 122 120 117 115 116 115 111 105 101 96 96 95 84
286 278 258 253 253 256 131 100 38 3 18 20 0 3 97 84 58 70 81 77 72 69 77 84 105 125 137 140 133 132 136 139 132 130 129 123 121 117 114 111 112 113 113 108 104 99 99 96 86
274 258 254 258 267 268 93 94 48 42 71 37 41 31 70 98 91 83 77 71 66 57 57 74 82 101 122 137 139 136 133 133 133 133 136 137 134 128 119 113 114 114 114 114 109 105 103 101 94
228 245 255 299 335 349 23 17 351 284 238 226 121 82 91 98 102 113 110 96 73 39 33 57 80 87 108 124 136 143 142 138 135 135 140 142 129 122 118 119 124 125 124 124 125 127 124 110 110
234 253 279 304 348 348 344 340 337 288 280 302 330 55 94 100 124 139 140 135 134 107 50 47 64 92 108 116 133 132 131 132 128 130 134 129 123 123 123 126 127 133 138 134 136 148 154 115 98
249 276 297 303 346 344 320 309 313 298 291 337 358 42 64 114 163 169 154 133 134 116 95 59 54 85 99 114 129 131 135 136 133 125 121 130 135 136 138 134 134 137 135 130 142 143 118 93 82
248 261 282 300 338 319 309 293 286 278 278 303 328 61 39 326 256 130 113 100 93 109 91 79 70 102 105 112 123 119 133 140 139 140 140 130 139 145 141 133 125 127 121 126 128 123 120 103 79
294 280 274 271 259 258 263 278 266 260 243 255 70 127 201 280 307 56 57 52 19 30 66 87 93 117 114 125 137 145 142 146 146 146 144 140 134 142 141 131 129 129 123 123 123 137 124 119 105
284 276 265 246 226 205 248 275 238 245 243 253 248 234 208 216 326 24 39 27 351 317 252 133 160 144 131 137 143 133 134 135 137 142 146 138 134 144 143 138 140 138 126 125 119 121 102 118 114
249 252 252 212 178 161 186 260 263 182 188 254 261 254 183 106 83 67 35 19 10 340 11 75 74 132 134 126 128 115 109 109 112 118 127 126 126 132 134 136 143 137 132 133 132 119 106 118 128
222 248 254 249 172 175 218 262 272 232 231 253 260 256 231 54 71 66 50 20 2 348 112 100 75 130 141 124 117 104 98 90 92 96 97 106 116 119 127 139 128 128 128 134 135 117 125 138 153
254 269 274 270 179 247 255 262 272 271 243 244 248 250 220 164 74 61 54 39 19 12 55 91 101 54 72 105 102 94 92 88 82 87 92 100 113 121 121 123 128 129 135 142 138 148 126 118 111
291 286 283 298 320 280 257 264 265 257 247 239 237 230 208 144 82 75 62 51 50 39 44 65 82 65 70 96 111 118 129 126 116 96 93 101 94 102 115 119 137 138 155 171 159 147 153 153 120
273 281 281 297 329 299 279 273 267 244 225 221 227 213 169 113 86 69 55 55 56 53 49 53 64 83 91 87 130 125 124 121 99 90 88 86 92 93 107 116 130 146 149 146 155 147 142 157 142
260 261 273 284 312 256 273 278 244 221 194 188 186 163 130 125 104 88 63 50 52 50 49 50 52 66 84 86 98 94 87 92 102 103 101 90 104 110 111 138 138 151 157 168 173 168 163 185 209
260 276 281 283 287 272 240 283 258 218 193 188 167 136 120 115 104 93 80 58 48 40 46 52 60 62 70 104 105 123 132 135 130 140 116 106 107 111 125 137 142 145 148 168 178 172 173 176 204
258 311 279 267 261 276 247 255 269 208 197 197 170 142 118 106 98 83 73 69 58 44 41 42 53 58 60 80 99 111 92 86 95 106 113 121 121 102 93 91 101 139 163 175 177 170 190 193 207
258 265 261 255 250 256 228 224 263 218 198 174 159 141 121 102 94 86 81 74 63 49 42 39 47 46 54 79 95 108 93 83 96 92 113 118 107 116 107 112 129 156 177 192 205 202 204 207 215
217 208 246 236 223 244 234 227 246 198 105 139 151 144 130 112 99 95 84 72 60 49 38 38 43 38 32 54 77 105 144 132 139 139 157 157 164 212 216 176 194 205 214 215 211 203 215 213 214
217 225 205 229 243 265 241 235 245 123 78 75 109 129 125 118 109 99 89 78 63 50 40 38 36 31 25 30 22 29 28 39 105 86 156 189 199 207 208 210 209 210 197 202 197 187 216 228 220
205 227 273 279 288 276 242 232 239 177 166 151 128 127 132 126 116 109 99 88 75 54 43 38 33 25 18 15 10 14 16 23 16 2 37 133 336 222 178 195 207 204 191 198 185 182 204 224 222
254 235 179 205 230 253 253 233 221 188 190 172 166 163 144 126 116 114 108 95 82 59 38 36 35 24 10 10 5 11 11 11 355 10 40 37 16 13 149 178 216 225 228 215 183 186 198 209 228
202 214 216 223 229 238 259 253 277 170 174 175 174 156 150 141 130 126 112 96 86 72 51 35 25 21 14 8 6 8 10 11 0 3 8 24 18 34 177 180 204 226 235 232 207 204 198 211 224
220 213 196 203 237 235 258 263 19 73 101 149 160 150 142 141 138 134 123 108 95 73 53 37 24 19 5 359 355 356 6 16 10 351 347 11 18 335 272 175 159 198 260 248 235 234 220 216 216